Regional Weather Roundup
Issued by NWS Sioux Falls, SD

Home | Current Version | Previous Version | Graphics & Text | Print | Product List | Glossary On
Versions: 1 2 3 4 5 6 7 8 9 10 11 12 13 14 15 16 17 18 19 20 21 22 23 24 25 26 27 28 29 30 31 32 33 34 35 36 37 38 39 40 41 42 43 44 45 46 47 48 49 50
000
ASUS43 KFSD 302310
RWRFSD

WEATHER ROUNDUP FOR SE SOUTH DAKOTA/SW MINNESOTA/NW IOWA
NATIONAL WEATHER SERVICE SIOUX FALLS SD
600 PM CDT TUE JUN 30 2015

NOTE: "FAIR" INDICATES FEW OR NO CLOUDS BELOW 12,000 FEET WITH NO
SIGNIFICANT WEATHER AND OR OBSTRUCTIONS TO VISIBILITY.


SDZ038>040-050-052>070-010000-
SOUTHEAST SOUTH DAKOTA

CITY           SKY/WX    TMP DP  RH WIND       PRES   REMARKS
BROOKINGS      CLOUDY    73  61  64 E9        29.92S
CHAMBERLAIN    CLOUDY    74  64  71 E8        29.89S
HURON          CLOUDY    71  69  93 CALM      29.88R FOG
MADISON        FAIR      72  72 100 S5        29.91F
MITCHELL       LGT RAIN  72  70  93 S6        29.88F FOG
SIOUX FALLS    CLOUDY    72  67  84 W3        29.89F HAZE
WINNER         FAIR      78  61  55 E13G22    29.87S
YANKTON        CLOUDY    72  64  78 SE3       29.89S
$$

MNZ071-072-080-081-089-090-097-098-010000-
SOUTHWEST MINNESOTA

CITY           SKY/WX    TMP DP  RH WIND       PRES   REMARKS
FAIRMONT       CLOUDY    72  57  60 CALM      29.91S
JACKSON        CLOUDY    72  61  68 NE3       29.93F
LUVERNE        CLOUDY    77  64  65 SE5       29.90R
MARSHALL       PTSUNNY   70  61  73 SE6         N/A
MONTEVIDEO     MOSUNNY   73  61  64 SW3       29.92S
PIPESTONE      CLOUDY    72  63  73 SE6       29.92S
REDWOOD FALLS  PTSUNNY   74  58  57 S3        29.90F
TRACY          CLOUDY    71  64  77 E5        29.92S
WINDOM         CLOUDY    72  61  68 CALM      29.92F
WORTHINGTON    CLOUDY    72  61  68 E10       29.91F
$$

IAZ001>003-012>014-020>022-031-032-NEZ013-014-SDZ071-010000-
NORTHWEST IOWA

CITY           SKY/WX    TMP DP  RH WIND       PRES   REMARKS
CHEROKEE       CLOUDY    76  67  72 CALM      29.89F
DENISON        CLOUDY    73  70  88 MISG      29.88F
ESTHERVILLE    CLOUDY    72  61  68 CALM      29.91F
LE MARS        DRIZZLE   72  70  94 VRB5      29.92R
ORANGE CITY    LGT RAIN  72  68  88 SW3       29.91R
SHELDON        CLOUDY    73  73 100 CALM      29.90R
SIOUX CITY     CLOUDY    74  66  76 NE7       29.88F
SPENCER        CLOUDY    75  64  68 E9        29.90F
STORM LAKE     CLOUDY    75  64  69 E6        29.91F
$$

ABBREVIATIONS USED IN REMARKS
   TC - TEMPERATURE IN CELSIUS
  WCI - WIND CHILL INDEX
   HX - HEAT INDEX
  VSB - VISIBILITY



USA.gov is the U.S. government's official web portal to all federal, state and local government web resources and services.